Location: Bottom School (historical)
(37.9078°N, 89.3593°W)
Time: 08:00:31
(UTC+00:00)

Hubble Space Telescope - Pass Details

Date: 05 December 2022
Orbit: 529 x 532 km, 28.5° (Epoch: 29 January)

Event Time Altitude Azimuth Distance (km) Brightness Sun altitude
Rises 12:03:48 0° 215° (SW) 2,645 4.2 -10.6°
Reaches altitude 10° 12:07:34 10° 179° (S) 1,758 3.7 -9.9°
Maximum altitude 12:08:48 11° 162° (SSE) 1,685 3.9 -9.7°
Drops below altitude 10° 12:10:02 10° 144° (SE) 1,759 4.4 -9.5°
Sets 12:13:48 0° 109° (ESE) 2,649 6.8 -8.8°
